Helena, Arkansas, United States (72342)
Lat: 34.53N, Lon: 90.59W
Wx Zone: ARZ058
Local Info
Past Weather Observations for Monday, October 20, 2014

NOTE: This archive is for the closest National Weather Service station to Helena. Information may differ from the station used for current weather conditions.

Click here for Long-term Archive

Time Weather Temperature Dewpoint Humidity Pressure Winds Precip Visibility
23:55
Obscured
Fog And Mist
54°F / 12°C 52°F / 11°C 94% 30.04 in
(1017 mb)
Calm - 3/4SM
23:35
Clear
Fog And Mist
52°F / 11°C 52°F / 11°C 100% 30.04 in
(1017 mb)
Calm - 4SM
23:15
Clear
52°F / 11°C 52°F / 11°C 100% 30.06 in
(1018 mb)
Calm - 7SM
22:55
Clear
54°F / 12°C 52°F / 11°C 94% 30.04 in
(1017 mb)
Calm - 10SM
22:35
Clear
54°F / 12°C 52°F / 11°C 94% 30.06 in
(1018 mb)
Calm - 10SM
22:15
Clear
54°F / 12°C 52°F / 11°C 94% 30.06 in
(1018 mb)
Calm - 10SM
21:55
Clear
54°F / 12°C 52°F / 11°C 94% 30.06 in
(1018 mb)
Calm - 10SM
21:35
Clear
57°F / 14°C 52°F / 11°C 82% 30.06 in
(1018 mb)
Calm - 10SM
21:15
Clear
57°F / 14°C 54°F / 12°C 88% 30.06 in
(1018 mb)
S 3.5 mph
(S 6 kph)
- 10SM
20:55
Clear
54°F / 12°C 52°F / 11°C 94% 30.06 in
(1018 mb)
Calm - 10SM
20:35
Clear
55°F / 13°C 54°F / 12°C 94% 30.06 in
(1018 mb)
Calm - 10SM
20:15
Clear
55°F / 13°C 52°F / 11°C 88% 30.06 in
(1018 mb)
Calm - 10SM
19:55
Clear
55°F / 13°C 54°F / 12°C 94% 30.06 in
(1018 mb)
Calm - 10SM
19:35
Clear
59°F / 15°C 54°F / 12°C 82% 30.04 in
(1017 mb)
SW 3.5 mph
(SW 6 kph)
- 10SM
19:15
Clear
61°F / 16°C 54°F / 12°C 77% 30.04 in
(1017 mb)
SW 3.5 mph
(SW 6 kph)
- 10SM
18:55
Clear
61°F / 16°C 54°F / 12°C 77% 30.04 in
(1017 mb)
Calm - 10SM
18:35
Clear
61°F / 16°C 54°F / 12°C 77% 30.04 in
(1017 mb)
Calm - 10SM
18:15
Clear
61°F / 16°C 54°F / 12°C 77% 30.04 in
(1017 mb)
Calm - 10SM
17:55
Clear
61°F / 16°C 54°F / 12°C 77% 30.04 in
(1017 mb)
Calm - 10SM
17:35
Clear
66°F / 19°C 52°F / 11°C 60% 30.04 in
(1017 mb)
Calm - 10SM
17:15
Clear
66°F / 19°C 54°F / 12°C 64% 30.04 in
(1017 mb)
SW 4.6 mph
(SW 7 kph)
- 10SM
16:55
Clear
70°F / 21°C 52°F / 11°C 53% 30.04 in
(1017 mb)
SSW 5.8 mph
(SSW 9 kph)
- 10SM
16:35
Clear
70°F / 21°C 52°F / 11°C 53% 30.01 in
(1016 mb)
SW 4.6 mph
(SW 7 kph)
- 10SM
16:15
Clear
72°F / 22°C 52°F / 11°C 50% 30.04 in
(1017 mb)
SSW 4.6 mph
(SSW 7 kph)
- 10SM
15:55
Clear
72°F / 22°C 50°F / 10°C 47% 30.01 in
(1016 mb)
W 3.5 mph
(W 6 kph)
- 10SM
15:35
Partly Cloudy
72°F / 22°C 52°F / 11°C 50% 30.04 in
(1017 mb)
Calm - 10SM
15:15
Partly Cloudy
70°F / 21°C 52°F / 11°C 53% 30.04 in
(1017 mb)
W 4.6 mph
(W 7 kph)
- 10SM
14:55
Partly Cloudy
70°F / 21°C 50°F / 10°C 50% 30.04 in
(1017 mb)
Calm - 10SM
14:35
Partly Cloudy
70°F / 21°C 50°F / 10°C 50% 30.04 in
(1017 mb)
SW 3.5 mph
(SW 6 kph)
- 10SM
14:15
Partly Cloudy
72°F / 22°C 50°F / 10°C 47% 30.04 in
(1017 mb)
Calm - 10SM
13:55
Clear
70°F / 21°C 50°F / 10°C 50% 30.04 in
(1017 mb)
SSW 5.8 mph
(SSW 9 kph)
- 10SM
13:35
Clear
70°F / 21°C 52°F / 11°C 53% 30.04 in
(1017 mb)
WNW 5.8 mph
(WNW 9 kph)
- 10SM
13:15
Clear
70°F / 21°C 52°F / 11°C 53% 30.06 in
(1018 mb)
SW 6.9 mph
(SW 11 kph)
- 10SM
12:55
Clear
70°F / 21°C 50°F / 10°C 50% 30.06 in
(1018 mb)
Calm - 10SM
12:35
Clear
70°F / 21°C 50°F / 10°C 50% 30.06 in
(1018 mb)
SW 4.6 mph
(SW 7 kph)
- 10SM
12:15
Clear
70°F / 21°C 50°F / 10°C 50% 30.06 in
(1018 mb)
SSW 8.1 mph
(SSW 13 kph)
- 10SM
11:55
Clear
68°F / 20°C 50°F / 10°C 53% 30.09 in
(1019 mb)
SSW 6.9 mph
(SSW 11 kph)
- 10SM
11:35
Clear
68°F / 20°C 50°F / 10°C 53% 30.09 in
(1019 mb)
SSW 3.5 mph
(SSW 6 kph)
- 10SM
11:15
Clear
68°F / 20°C 50°F / 10°C 53% 30.09 in
(1019 mb)
Calm - 10SM
10:55
Clear
68°F / 20°C 50°F / 10°C 53% 30.09 in
(1019 mb)
SW 8.1 mph
(SW 13 kph)
- 10SM
10:35
Clear
66°F / 19°C 50°F / 10°C 56% 30.09 in
(1019 mb)
SW 5.8 mph
(SW 9 kph)
- 10SM
10:15
Clear
66°F / 19°C 50°F / 10°C 56% 30.12 in
(1020 mb)
SW 6.9 mph
(SW 11 kph)
- 10SM
09:55
Clear
64°F / 18°C 50°F / 10°C 60% 30.12 in
(1020 mb)
SW 4.6 mph
(SW 7 kph)
- 10SM
09:35
Clear
63°F / 17°C 54°F / 12°C 73% 30.12 in
(1020 mb)
Calm - 10SM
09:15
Clear
61°F / 16°C 54°F / 12°C 77% 30.12 in
(1020 mb)
SW 4.6 mph
(SW 7 kph)
- 10SM
08:55
Clear
57°F / 14°C 55°F / 13°C 94% 30.12 in
(1020 mb)
Calm - 10SM
08:35
Clear
55°F / 13°C 54°F / 12°C 94% 30.12 in
(1020 mb)
Calm - 10SM
08:15
Clear
54°F / 12°C 52°F / 11°C 94% 30.12 in
(1020 mb)
Calm - 10SM
07:55
Clear
52°F / 11°C 52°F / 11°C 100% 30.12 in
(1020 mb)
Calm - 10SM
07:35
Clear
50°F / 10°C 50°F / 10°C 100% 30.12 in
(1020 mb)
Calm - 10SM
07:15
Clear
46°F / 8°C 46°F / 8°C 100% 30.09 in
(1019 mb)
Calm - 7SM
06:55
Clear
Fog And Mist
45°F / 7°C 45°F / 7°C 100% 30.12 in
(1020 mb)
Calm - 4SM
06:35
Clear
Fog And Mist
43°F / 6°C 43°F / 6°C 100% 30.09 in
(1019 mb)
Calm - 3SM
06:15
Clear
Fog And Mist
45°F / 7°C 43°F / 6°C 93% 30.09 in
(1019 mb)
Calm - 2SM
05:55
Obscured
Fog And Mist
43°F / 6°C 43°F / 6°C 100% 30.09 in
(1019 mb)
Calm - 1 1/2SM
05:35
Obscured
Fog
43°F / 6°C 43°F / 6°C 100% 30.09 in
(1019 mb)
Calm - 1/4SM
05:15
Overcast
Fog
43°F / 6°C 43°F / 6°C 100% 30.09 in
(1019 mb)
Calm - 1/4SM
04:55
Overcast
Fog
43°F / 6°C 43°F / 6°C 100% 30.09 in
(1019 mb)
Calm - 1/2SM
04:35
Mostly Cloudy
Fog
43°F / 6°C 43°F / 6°C 100% 30.09 in
(1019 mb)
Calm - M1/4SM
04:15
Overcast
Fog
43°F / 6°C 43°F / 6°C 100% 30.09 in
(1019 mb)
Calm - 1/4SM
03:55
Overcast
Fog
43°F / 6°C 43°F / 6°C 100% 30.09 in
(1019 mb)
Calm - M1/4SM
03:35
Overcast
Fog
43°F / 6°C 43°F / 6°C 100% 30.09 in
(1019 mb)
Calm - M1/4SM
03:15
Mostly Cloudy
Fog
43°F / 6°C 43°F / 6°C 100% 30.09 in
(1019 mb)
Calm - 1/4SM
02:55
Obscured
Fog
43°F / 6°C 43°F / 6°C 100% 30.09 in
(1019 mb)
Calm - 1/2SM
02:35
Obscured
Fog
45°F / 7°C 45°F / 7°C 100% 30.09 in
(1019 mb)
Calm - 1/4SM
02:15
Obscured
Fog
45°F / 7°C 45°F / 7°C 100% 30.09 in
(1019 mb)
Calm - M1/4SM
01:55
Obscured
Fog
45°F / 7°C 45°F / 7°C 100% 30.09 in
(1019 mb)
Calm - 1/2SM
01:35
Obscured
Fog
45°F / 7°C 45°F / 7°C 100% 30.09 in
(1019 mb)
Calm - M1/4SM
01:15
Obscured
Fog
46°F / 8°C 45°F / 7°C 93% 30.09 in
(1019 mb)
Calm - 1/2SM
00:55
Obscured
Fog
45°F / 7°C 43°F / 6°C 93% 30.09 in
(1019 mb)
Calm - M1/4SM
00:35
Obscured
Fog And Mist
46°F / 8°C 45°F / 7°C 93% 30.09 in
(1019 mb)
Calm - 1 1/2SM
00:15
Clear
46°F / 8°C 46°F / 8°C 100% 30.09 in
(1019 mb)
Calm - 10SM
Time Weather Temperature Dewpoint Humidity Pressure Winds Precip Visibility


Weather for websites

WeatherForYou.com, LLC is not responsible for any damages or problems caused by this service. Current weather conditions are obtained from the closest station including government and personal stations which may have varying degrees of accuracy. Weather forecasts are derived from the NOAA NDFD. Like all things, this site belongs to Jesus Christ... He just trusts me to maintain it. If you have any questions or comments email webmaster@weatherforyou.com

Copyright © 2014, WeatherForYou.com LLC. All rights reserved.